Location: Rounton
(54.4000°N, 1.3500°W)
Time: 17:02:24
(UTC+00:00)

Tiros 1 - Pass Details

Date: 05 December 2021
Orbit: 629 x 664 km, 48.4° (Epoch: 19 January)

Event Time Altitude Azimuth Distance (km) Brightness Sun altitude
Rises 19:11:39 0° 232° (SW) 2,920 11.2 -29.0°
Reaches altitude 10° 19:14:10 10° 222° (SW) 2,019 10.1 -29.3°
Enters shadow 19:15:56 20° 206° (SSW) 1,476 9.2 -29.6°
